Iberica Hav — C6YI3 — position and weather

sailwx.info

Track history (hours):
 
Tides and Currents Weather Stations Pressure Air Temp Water Temp Dewpoint Dewpoint Depression Visibility Wind Speed Wind Dir Waves Ship Positions

Iberica Hav

Last reported at 2014-Oct-24 13:33 UTC. Time now 2014-Oct-25 14:37 UTC.
Position N 58°38' E 017°05'.

Length 88 m; draft 2.4 m.

Type: Cargo ship. MMSI: 311034400.

Date/timePositionNaut miles runAvg speedWind from/ knotsBaromVisibWave heightAir tempDewpointWater temp
2014-Oct-24 13:33N 58°38' E 017°05'9 9.5
2014-Oct-24 12:33N 58°37' E 016°47'9 9.3
2014-Oct-24 11:33N 58°39' E 016°30'9 8.6
2014-Oct-24 10:33N 58°37' E 016°14'1 0.4
2014-Oct-24 07:29N 58°36' E 016°12'0 0.0
2014-Oct-24 06:29N 58°36' E 016°12'0 0.0
2014-Oct-24 05:32N 58°36' E 016°12'0 0.0
2014-Oct-23 17:05N 58°36' E 016°11'1 0.0
2014-Oct-21 19:25N 58°37' E 016°14'7 8.0
2014-Oct-21 18:34N 58°39' E 016°26'9 9.2
2014-Oct-21 17:34N 58°37' E 016°44'12 8.9
2014-Oct-21 16:11N 58°38' E 017°07'66 7.6
2014-Oct-21 07:33N 57°32' E 017°15'9 8.6
2014-Oct-21 06:33N 57°23' E 017°14'9 8.5
2014-Oct-21 05:34N 57°15' E 017°12'8 8.4
2014-Oct-21 04:33N 57°07' E 017°09'10 9.1
2014-Oct-21 03:29N 56°57' E 017°06'109 7.8
2014-Oct-20 13:32N 55°31' E 015°06'8 8.4
2014-Oct-20 12:34N 55°27' E 014°53'8 8.3
2014-Oct-20 11:34N 55°23' E 014°41'9 8.8
2014-Oct-20 10:34N 55°16' E 014°30'8 8.5
2014-Oct-20 09:34N 55°10' E 014°20'8 8.1
2014-Oct-20 08:34N 55°04' E 014°10'8 8.4
2014-Oct-20 07:34N 55°00' E 013°58'64 8.8
2014-Oct-20 00:15N 54°34' E 012°16'6 9.2
2014-Oct-19 23:33N 54°31' E 012°06'59 9.6
2014-Oct-19 17:28N 54°30' E 010°25'8 9.1
2014-Oct-19 16:33N 54°26' E 010°13'5 4.6
2014-Oct-19 15:33N 54°22' E 010°09'5 5.5
2014-Oct-19 14:34N 54°21' E 009°59'8 7.8
2014-Oct-19 13:33N 54°21' E 009°46'8 7.8
2014-Oct-19 12:33N 54°15' E 009°37'21 6.3
2014-Oct-19 09:15N 53°58' E 009°16'6 8.3
2014-Oct-19 08:33N 53°54' E 009°09'6 5.5
2014-Oct-19 07:31N 53°51' E 009°01'1010.8
2014-Oct-19 06:34N 53°52' E 008°44'1010.1
2014-Oct-19 05:33N 53°58' E 008°30'1010.5
2014-Oct-19 04:33N 53°59' E 008°12'9 9.5
2014-Oct-19 03:33N 53°57' E 007°57'71 8.3
2014-Oct-18 19:03N 53°39' E 006°01'4 8.8
2014-Oct-18 18:33N 53°38' E 005°54'9 8.9
2014-Oct-18 17:33N 53°35' E 005°39'9 9.0
2014-Oct-18 16:33N 53°33' E 005°25'9 9.3
2014-Oct-18 15:33N 53°30' E 005°10'10 9.9
2014-Oct-18 14:34N 53°26' E 004°55'10 9.7
2014-Oct-18 13:32N 53°20' E 004°41'57 9.4
2014-Oct-18 07:28N 52°31' E 003°55'55 7.6
2014-Oct-18 00:09N 51°40' E 003°20'710.1
2014-Oct-17 23:26N 51°33' E 003°25'910.2
2014-Oct-17 22:33N 51°26' E 003°34'1010.3
2014-Oct-17 21:34N 51°21' E 003°48'3 3.3
2014-Oct-17 20:34N 51°18' E 003°50'5 4.3
2014-Oct-17 19:26N 51°13' E 003°48'0 0.0
2014-Oct-17 13:31N 51°13' E 003°48'0 0.0
2014-Oct-17 12:31N 51°13' E 003°48'0 0.0
2014-Oct-17 11:31N 51°13' E 003°48'0 0.0
2014-Oct-17 06:04N 51°13' E 003°48'0 0.0
2014-Oct-17 04:25N 51°13' E 003°48'0 0.0
2014-Oct-17 03:13N 51°13' E 003°48'0 0.0
2014-Oct-17 01:28N 51°13' E 003°48'4 4.0
2014-Oct-17 00:34N 51°17' E 003°50'5 4.7
2014-Oct-16 23:32N 51°21' E 003°47'8 7.8
2014-Oct-16 22:33N 51°25' E 003°37'8 8.4
2014-Oct-16 21:33N 51°31' E 003°27'9 9.3
2014-Oct-16 20:33N 51°39' E 003°20'9 9.0
2014-Oct-16 19:33N 51°46' E 003°11'63 9.0
2014-Oct-16 12:34N 52°32' E 002°01'1110.7
2014-Oct-16 11:33N 52°40' E 001°50'1010.2
2014-Oct-16 10:33N 52°48' E 001°40'10 9.6
2014-Oct-16 09:33N 52°55' E 001°27'9 9.3
2014-Oct-16 08:33N 52°60' E 001°14'42 8.4
2014-Oct-16 03:33N 53°28' E 000°23'8 8.0
2014-Oct-16 02:34N 53°33' E 000°12'9 9.1
2014-Oct-16 01:34N 53°36' W 000°02'1111.5
2014-Oct-16 00:33N 53°44' W 000°17'1010.2
2014-Oct-15 23:34N 53°42' W 000°34'8 7.4
2014-Oct-15 22:29N 53°42' W 000°47'3 2.7
2014-Oct-15 21:23N 53°42' W 000°52'  
Track history (hours):
 
Tides and Currents Weather Stations Pressure Air Temp Water Temp Dewpoint Dewpoint Depression Visibility Wind Speed Wind Dir Waves Ship Positions

Iberica Hav

Last reported at 2014-Oct-24 13:33 UTC. Time now 2014-Oct-25 14:37 UTC.
Position N 58°38' E 017°05'.

Length 88 m; draft 2.4 m.

Type: Cargo ship. MMSI: 311034400.

Date/timePositionNaut miles runAvg speedWind from/ knotsBaromVisibWave heightAir tempDewpointWater temp
2014-Oct-24 13:33N 58°38' E 017°05'9 9.5
2014-Oct-24 12:33N 58°37' E 016°47'9 9.3
2014-Oct-24 11:33N 58°39' E 016°30'9 8.6
2014-Oct-24 10:33N 58°37' E 016°14'1 0.4
2014-Oct-24 07:29N 58°36' E 016°12'0 0.0
2014-Oct-24 06:29N 58°36' E 016°12'0 0.0
2014-Oct-24 05:32N 58°36' E 016°12'0 0.0
2014-Oct-23 17:05N 58°36' E 016°11'1 0.0
2014-Oct-21 19:25N 58°37' E 016°14'7 8.0
2014-Oct-21 18:34N 58°39' E 016°26'9 9.2
2014-Oct-21 17:34N 58°37' E 016°44'12 8.9
2014-Oct-21 16:11N 58°38' E 017°07'66 7.6
2014-Oct-21 07:33N 57°32' E 017°15'9 8.6
2014-Oct-21 06:33N 57°23' E 017°14'9 8.5
2014-Oct-21 05:34N 57°15' E 017°12'8 8.4
2014-Oct-21 04:33N 57°07' E 017°09'10 9.1
2014-Oct-21 03:29N 56°57' E 017°06'109 7.8
2014-Oct-20 13:32N 55°31' E 015°06'8 8.4
2014-Oct-20 12:34N 55°27' E 014°53'8 8.3
2014-Oct-20 11:34N 55°23' E 014°41'9 8.8
2014-Oct-20 10:34N 55°16' E 014°30'8 8.5
2014-Oct-20 09:34N 55°10' E 014°20'8 8.1
2014-Oct-20 08:34N 55°04' E 014°10'8 8.4
2014-Oct-20 07:34N 55°00' E 013°58'64 8.8
2014-Oct-20 00:15N 54°34' E 012°16'6 9.2
2014-Oct-19 23:33N 54°31' E 012°06'59 9.6
2014-Oct-19 17:28N 54°30' E 010°25'8 9.1
2014-Oct-19 16:33N 54°26' E 010°13'5 4.6
2014-Oct-19 15:33N 54°22' E 010°09'5 5.5
2014-Oct-19 14:34N 54°21' E 009°59'8 7.8
2014-Oct-19 13:33N 54°21' E 009°46'8 7.8
2014-Oct-19 12:33N 54°15' E 009°37'21 6.3
2014-Oct-19 09:15N 53°58' E 009°16'6 8.3
2014-Oct-19 08:33N 53°54' E 009°09'6 5.5
2014-Oct-19 07:31N 53°51' E 009°01'1010.8
2014-Oct-19 06:34N 53°52' E 008°44'1010.1
2014-Oct-19 05:33N 53°58' E 008°30'1010.5
2014-Oct-19 04:33N 53°59' E 008°12'9 9.5
2014-Oct-19 03:33N 53°57' E 007°57'71 8.3
2014-Oct-18 19:03N 53°39' E 006°01'4 8.8
2014-Oct-18 18:33N 53°38' E 005°54'9 8.9
2014-Oct-18 17:33N 53°35' E 005°39'9 9.0
2014-Oct-18 16:33N 53°33' E 005°25'9 9.3
2014-Oct-18 15:33N 53°30' E 005°10'10 9.9
2014-Oct-18 14:34N 53°26' E 004°55'10 9.7
2014-Oct-18 13:32N 53°20' E 004°41'57 9.4
2014-Oct-18 07:28N 52°31' E 003°55'55 7.6
2014-Oct-18 00:09N 51°40' E 003°20'710.1
2014-Oct-17 23:26N 51°33' E 003°25'910.2
2014-Oct-17 22:33N 51°26' E 003°34'1010.3
2014-Oct-17 21:34N 51°21' E 003°48'3 3.3
2014-Oct-17 20:34N 51°18' E 003°50'5 4.3
2014-Oct-17 19:26N 51°13' E 003°48'0 0.0
2014-Oct-17 13:31N 51°13' E 003°48'0 0.0
2014-Oct-17 12:31N 51°13' E 003°48'0 0.0
2014-Oct-17 11:31N 51°13' E 003°48'0 0.0
2014-Oct-17 06:04N 51°13' E 003°48'0 0.0
2014-Oct-17 04:25N 51°13' E 003°48'0 0.0
2014-Oct-17 03:13N 51°13' E 003°48'0 0.0
2014-Oct-17 01:28N 51°13' E 003°48'4 4.0
2014-Oct-17 00:34N 51°17' E 003°50'5 4.7
2014-Oct-16 23:32N 51°21' E 003°47'8 7.8
2014-Oct-16 22:33N 51°25' E 003°37'8 8.4
2014-Oct-16 21:33N 51°31' E 003°27'9 9.3
2014-Oct-16 20:33N 51°39' E 003°20'9 9.0
2014-Oct-16 19:33N 51°46' E 003°11'63 9.0
2014-Oct-16 12:34N 52°32' E 002°01'1110.7
2014-Oct-16 11:33N 52°40' E 001°50'1010.2
2014-Oct-16 10:33N 52°48' E 001°40'10 9.6
2014-Oct-16 09:33N 52°55' E 001°27'9 9.3
2014-Oct-16 08:33N 52°60' E 001°14'42 8.4
2014-Oct-16 03:33N 53°28' E 000°23'8 8.0
2014-Oct-16 02:34N 53°33' E 000°12'9 9.1
2014-Oct-16 01:34N 53°36' W 000°02'1111.5
2014-Oct-16 00:33N 53°44' W 000°17'1010.2
2014-Oct-15 23:34N 53°42' W 000°34'8 7.4
2014-Oct-15 22:29N 53°42' W 000°47'3 2.7
2014-Oct-15 21:23N 53°42' W 000°52'  

Dump ship's entire track history